Regional Weather Roundup
Issued by NWS

Home | Current Version | Previous Version | Graphics & Text | Print | Product List | Glossary On
Versions: 1 2 3 4 5 6 7 8 9 10 11 12 13 14 15 16 17 18 19 20 21 22 23 24 25 26 27 28 29 30 31 32 33 34 35 36 37 38 39 40 41 42 43 44 45 46 47 48 49 50
000
ASUS43 KLOT 300503
RWRIL

ILLINOIS REGIONAL WEATHER ROUNDUP
NATIONAL WEATHER SERVICE CHICAGO/ROMEOVILLE IL
1200 AM CDT THU MAR 30 2017

NOTE: "FAIR" INDICATES FEW OR NO CLOUDS BELOW 12,000 FEET WITH NO
SIGNIFICANT WEATHER AND/OR OBSTRUCTIONS TO VISIBILITY.

* THESE STATIONS ARE NOT UNDER NWS QUALITY CONTROL. THEY ALSO MAY NOT
  REPORT WEATHER SUCH AS PRECIPITATION OR FOG.

ILZ001-002-007-009-015-016-024-300600-
NORTHWEST ILLINOIS

CITY           SKY/WX    TMP DP  RH WIND       PRES   REMARKS
MOLINE         RAIN      43  39  86 E23G33    29.84F
STERLING*      LGT RAIN  42  39  89 E25G31    29.90F
SAVANNA*       CLOUDY    42  38  89 NE21G29   29.92F
$$

ILZ003-004-008-010-011-017-018-300600-
NORTH CENTRAL ILLINOIS

CITY           SKY/WX    TMP DP  RH WIND       PRES   REMARKS
ROCKFORD       LGT RAIN  43  38  82 NE22G29   29.99F
FREEPORT*      CLOUDY    40  38  95 NE18G25   29.99F
ROCHELLE*      CLOUDY    43  38  83 E21G29    29.95F
DE KALB*       CLOUDY    43  39  85 E22G30    29.96F
PERU*          CLOUDY    44  40  86 E24       29.90F
$$

ILZ005-006-012>014-019>023-300600-
NORTHEAST ILLINOIS

CITY           SKY/WX    TMP DP  RH WIND       PRES   REMARKS
CHICAGO-OHARE  LGT RAIN  45  38  76 E17G25    30.00F
CHICAGO-MIDWAY LGT RAIN  45  40  82 E20G26    30.01F FOG
AURORA         CLOUDY    45  39  79 E24G32    29.95F
LANSING*       LGT RAIN  46  38  75 E13G20    29.99F
JOLIET*        CLOUDY    46  40  81 E16G22    29.95F
WAUKEGAN       CLOUDY    41  37  86 E20G29    30.04F
DUPAGE AIRPORT LGT RAIN  44  41  89 NE18      29.98F
KANKAKEE*      CLOUDY    46  37  71 E23G29    29.92F
WHEELING       LGT RAIN  42  39  89 E13G22    30.05F
MORRIS*        LGT RAIN  45  39  81 E17       29.93F
ROMEOVILLE*    LGT RAIN  43  42  94 E20G26    29.94F
NORTHERLY ISL    N/A     41  38  89 NE10        N/A
$$

LMZ740>746-300600-
SOUTHERN LAKE MICHIGAN

STATION/POSITION SKY/WX   TEMP    WIND        PRES    VSBY  WAVE
                          AIR SEA DIR/SP/G                  HT/PER
                          (F)     (DEG/KT/KT) (MB)    (MI)  (FT/S)
HARRISON CRIB              42      50/ 17/ 18   N/A
BURNHAM HARBOR             41      30/ 11/ 15   N/A
CALUMET HARBOR             42      60/ 15/ 17 1015.9F
BURNS HARBOR               48      80/ 14/ 22 1016.9F
MICHIGAN CITY              47      70/ 14/ 18   N/A
$$

ILZ025>027-034>036-040-047-049-050-058-095>099-300600-
WEST-CENTRAL ILLINOIS

CITY           SKY/WX    TMP DP  RH WIND       PRES   REMARKS
QUINCY         RAIN      52  51  97 E12       29.72F FOG
GALESBURG*     CLOUDY    46  43  92 E18G28    29.80F
MACOMB*        CLOUDY    48  47  97 E17G30    29.80F
JACKSONVILLE*  TSTM      51  49  92 E16       29.75F
PITTSFIELD*    CLOUDY    53  51  95 N8        29.76S
$$

ILZ028>032-037-038-041>044-048-051>054-059>061-300600-
CENTRAL ILLINOIS

CITY           SKY/WX    TMP DP  RH WIND       PRES   REMARKS
PONTIAC        CLOUDY    47  44  91 E23       29.90F
BLOOMINGTON    LGT RAIN  49  46  90 NE16      29.85F
DECATUR        MOCLDY    53  47  79 E15       29.80F
PEORIA         LGT RAIN  48  46  93 E21       29.82F FOG
LACON*         TSTM      46  43  89 E13       29.88F
LINCOLN*       TSTM      53  50  90 NE6       29.82F
SPRINGFIELD      N/A     54  49  83 E10       29.79F
TAYLORVILLE    NOT AVBL
$$

ILZ033-039-045-046-055>057-062-063-300600-
EAST-CENTRAL ILLINOIS

CITY           SKY/WX    TMP DP  RH WIND       PRES   REMARKS
CHAMPAIGN      CLOUDY    54  45  71 E17       29.83F
RANTOUL*       CLOUDY    54  47  79 E16G23    29.85F
MATTOON        CLOUDY    55  48  77 SE14      29.81F
PARIS*         CLOUDY    55  47  76 E12       29.87F
$$

ILZ079-100>102-300600-
SOUTHWEST ILLINOIS

CITY           SKY/WX    TMP DP  RH WIND       PRES   REMARKS
ALTON          CLOUDY    58  52  80 E12       29.73F
BELLEVILLE     CLOUDY    62  56  80 E12       29.72F
CAHOKIA*       CLOUDY    63  53  70 SE14      29.71F
SPARTA*        CLOUDY    62  55  76 SE12G18   29.75F
$$

ILZ064>066-069>071-074>076-080>082-084>086-088>090-092>094-300600-
SOUTH-CENTRAL ILLINOIS

CITY           SKY/WX    TMP DP  RH WIND       PRES   REMARKS
CARBONDALE     PTCLDY    62  56  80 E8        29.75F
CAIRO*         PTCLDY    69  58  69 SE10      29.75F
EFFINGHAM*     CLOUDY    58  51  79 E16       29.81F
MARION         CLOUDY    64  57  77 E9        29.77F
MT. VERNON     MOCLDY    61  53  75 E13       29.78F
CENTRALIA*     CLOUDY    63  54  73 SE15      29.76F
SALEM*         PTCLDY    62  51  67 E10       29.79F
METROPOLIS*    CLEAR     64  57  78 SE3       29.78F
$$

ILZ067-068-072-073-078-083-087-091-300600-
SOUTHEAST ILLINOIS

CITY           SKY/WX    TMP DP  RH WIND       PRES   REMARKS
LAWRENCEVILLE  PTCLDY    57  50  77 E10       29.85F
FLORA*         CLOUDY    60  52  74 SE9       29.82F
FAIRFIELD*     MOCLDY    60  53  75 E7        29.81F
HARRISBURG*    MOCLDY    61  56  84 E9        29.81F
ROBINSON*      PTCLDY    56  48  74 SE14G21   29.86F
CARMI*         MOCLDY    60  54  79 SE14      29.82F
$$

ABBREVIATIONS USED IN REMARKS
   TC - TEMPERATURE IN CELSIUS
  WCI - WIND CHILL INDEX
   HX - HEAT INDEX
  VSB - VISIBILITY
$$




USA.gov is the U.S. government's official web portal to all federal, state and local government web resources and services.